| time (UTC) | temp F | wind direction | speed knots | gust knots | rain 1hr in | rain 24hr in | rain mn in | humidity % | barometer mb |
| 20260505041203 | 52 | 235 | 3.5 | 4.3 | 0.00 | 0.00 | 0.00 | 86 | 1011.8 |
| 20260505040204 | 52 | 256 | 3.5 | 6.1 | 0.00 | 0.00 | 0.00 | 86 | 1011.9 |
| 20260505035203 | 53 | 263 | 5.2 | 5.2 | 0.00 | 0.00 | 0.00 | 85 | 1011.8 |
| 20260505034204 | 53 | 260 | 2.6 | 4.3 | 0.00 | 0.00 | 0.00 | 85 | 1011.9 |
| 20260505033202 | 53 | 235 | 3.5 | 5.2 | 0.00 | 0.00 | 0.00 | 85 | 1011.8 |
| 20260505032204 | 53 | 250 | 3.5 | 5.2 | 0.00 | 0.00 | 0.00 | 84 | 1011.7 |
| 20260505031204 | 53 | 259 | 4.3 | 5.2 | 0.00 | 0.00 | 0.00 | 84 | 1011.9 |
| 20260505030203 | 53 | 250 | 3.5 | 6.1 | 0.00 | 0.00 | 0.00 | 84 | 1011.9 |
| 20260505025203 | 53 | 273 | 4.3 | 7.0 | 0.00 | 0.00 | 0.00 | 84 | 1011.9 |
| 20260505024204 | 53 | 249 | 4.3 | 5.2 | 0.00 | 0.00 | 0.00 | 83 | 1011.9 |
| 20260505023203 | 53 | 260 | 4.3 | 6.1 | 0.00 | 0.00 | 0.00 | 83 | 1011.9 |
| 20260505022203 | 53 | 262 | 2.6 | 6.1 | 0.00 | 0.00 | 0.00 | 83 | 1011.9 |
| 20260505021203 | 53 | 249 | 3.5 | 7.0 | 0.00 | 0.00 | 0.00 | 82 | 1012.0 |
| 20260505020203 | 53 | 250 | 3.5 | 7.0 | 0.00 | 0.00 | 0.00 | 81 | 1012.0 |
| 20260505015203 | 54 | 228 | 5.2 | 7.0 | 0.00 | 0.00 | 0.00 | 80 | 1012.0 |
| 20260505014202 | 53 | 263 | 3.5 | 7.8 | 0.00 | 0.00 | 0.00 | 80 | 1012.0 |
| 20260505013202 | 54 | 263 | 4.3 | 7.0 | 0.00 | 0.00 | 0.00 | 79 | 1011.9 |
| 20260505012202 | 54 | 257 | 3.5 | 5.2 | 0.00 | 0.00 | 0.00 | 78 | 1011.8 |
| 20260505011234 | 55 | 253 | 3.5 | 7.8 | 0.00 | 0.00 | 0.00 | 77 | 1011.6 |
| 20260505011203 | 55 | 253 | 3.5 | 7.8 | 0.00 | 0.00 | 0.00 | 77 | 1011.6 |
| 20260505010203 | 55 | 250 | 6.1 | 7.8 | 0.00 | 0.00 | 0.00 | 76 | 1011.5 |
| 20260505005202 | 55 | 253 | 2.6 | 6.1 | 0.00 | 0.00 | 0.00 | 75 | 1011.1 |
| 20260505004203 | 54 | 263 | 5.2 | 7.0 | 0.00 | 0.00 | 0.00 | 76 | 1010.8 |
| 20260505003204 | 55 | 226 | 5.2 | 7.0 | 0.00 | 0.00 | 0.00 | 75 | 1010.6 |
| 20260505002203 | 55 | 273 | 5.2 | 7.0 | 0.00 | 0.00 | 0.00 | 74 | 1010.5 |
| 20260505001204 | 56 | 236 | 7.0 | 8.7 | 0.00 | 0.00 | 0.00 | 73 | 1010.3 |
| 20260505000204 | 56 | 246 | 4.3 | 8.7 | 0.00 | 0.00 | 0.00 | 71 | 1010.2 |
| 20260504235204 | 56 | 250 | 3.5 | 5.2 | 0.00 | 0.00 | 0.00 | 69 | 1010.1 |
| 20260504234203 | 57 | 246 | 1.7 | 6.1 | 0.00 | 0.00 | 0.00 | 68 | 1010.0 |
| 20260504233203 | 57 | 245 | 4.3 | 7.8 | 0.00 | 0.00 | 0.00 | 67 | 1010.0 |
| 20260504232203 | 58 | 259 | 3.5 | 7.0 | 0.00 | 0.00 | 0.00 | 64 | 1009.9 |
| 20260504231204 | 58 | 255 | 4.3 | 12.2 | 0.00 | 0.00 | 0.00 | 63 | 1009.7 |
| 20260504230204 | 58 | 260 | 4.3 | 7.0 | 0.00 | 0.00 | 0.00 | 62 | 1009.7 |
| 20260504225202 | 59 | 238 | 12.2 | 12.2 | 0.00 | 0.00 | 0.00 | 61 | 1009.7 |
| 20260504224204 | 58 | 264 | 6.1 | 9.6 | 0.00 | 0.00 | 0.00 | 58 | 1009.7 |
| 20260504223204 | 59 | 248 | 4.3 | 9.6 | 0.00 | 0.00 | 0.00 | 58 | 1009.6 |
| 20260504222204 | 60 | 277 | 7.0 | 7.8 | 0.00 | 0.00 | 0.00 | 55 | 1009.5 |
| 20260504221203 | 61 | 260 | 5.2 | 7.8 | 0.00 | 0.00 | 0.00 | 53 | 1009.6 |
| 20260504220203 | 62 | 256 | 7.0 | 7.0 | 0.00 | 0.00 | 0.00 | 47 | 1009.5 |
| 20260504215203 | 62 | 262 | 4.3 | 10.4 | 0.00 | 0.00 | 0.00 | 46 | 1009.3 |
| 20260504214203 | 63 | 249 | 7.8 | 9.6 | 0.00 | 0.00 | 0.00 | 46 | 1009.4 |
| 20260504213204 | 64 | 250 | 4.3 | 8.7 | 0.00 | 0.00 | 0.00 | 47 | 1009.4 |
| 20260504212204 | 64 | 226 | 6.1 | 7.8 | 0.00 | 0.00 | 0.00 | 44 | 1009.3 |
| 20260504211203 | 63 | 221 | 5.2 | 10.4 | 0.00 | 0.00 | 0.00 | 48 | 1009.3 |
| 20260504210202 | 63 | 226 | 7.0 | 9.6 | 0.00 | 0.00 | 0.00 | 45 | 1009.3 |
| 20260504205204 | 64 | 239 | 7.0 | 8.7 | 0.00 | 0.00 | 0.00 | 45 | 1009.3 |
| 20260504204204 | 62 | 256 | 6.1 | 13.0 | 0.00 | 0.00 | 0.00 | 44 | 1009.2 |
| 20260504203233 | 64 | 239 | 5.2 | 8.7 | 0.00 | 0.00 | 0.00 | 43 | 1009.0 |
| 20260504203202 | 64 | 239 | 5.2 | 8.7 | 0.00 | 0.00 | 0.00 | 43 | 1009.0 |
| 20260504202203 | 64 | 262 | 3.5 | 11.3 | 0.00 | 0.00 | 0.00 | 42 | 1009.0 |
| 20260504201233 | 64 | 243 | 5.2 | 8.7 | 0.00 | 0.00 | 0.00 | 44 | 1009.1 |
| 20260504201203 | 64 | 218 | 3.5 | 10.4 | 0.00 | 0.00 | 0.00 | 44 | 1009.0 |
| 20260504200203 | 64 | 249 | 7.0 | 8.7 | 0.00 | 0.00 | 0.00 | 44 | 1009.1 |
| 20260504195203 | 64 | 294 | 4.3 | 12.2 | 0.00 | 0.00 | 0.00 | 42 | 1009.1 |
| 20260504194203 | 65 | 243 | 4.3 | 12.2 | 0.00 | 0.00 | 0.00 | 42 | 1009.1 |
| 20260504193232 | 65 | 195 | 2.6 | 8.7 | 0.00 | 0.00 | 0.00 | 38 | 1009.1 |
| 20260504193202 | 66 | 246 | 6.1 | 13.0 | 0.00 | 0.00 | 0.00 | 38 | 1009.0 |
| 20260504192234 | 66 | 260 | 4.3 | 11.3 | 0.00 | 0.00 | 0.00 | 38 | 1009.1 |
| 20260504192203 | 66 | 260 | 4.3 | 11.3 | 0.00 | 0.00 | 0.00 | 38 | 1009.1 |
| 20260504191203 | 66 | 239 | 7.0 | 8.7 | 0.00 | 0.00 | 0.00 | 39 | 1009.2 |
| 20260504190234 | 65 | 245 | 5.2 | 12.2 | 0.00 | 0.00 | 0.00 | 37 | 1009.4 |
| 20260504190203 | 65 | 260 | 7.0 | 12.2 | 0.00 | 0.00 | 0.00 | 37 | 1009.4 |
| 20260504185204 | 64 | 267 | 8.7 | 10.4 | 0.00 | 0.00 | 0.00 | 36 | 1009.6 |
| 20260504184203 | 65 | 246 | 7.0 | 13.9 | 0.00 | 0.00 | 0.00 | 36 | 1009.6 |
| 20260504183233 | 65 | 255 | 6.1 | 12.2 | 0.00 | 0.00 | 0.00 | 35 | 1009.7 |
| 20260504183202 | 65 | 222 | 7.0 | 15.6 | 0.00 | 0.00 | 0.00 | 34 | 1009.6 |
| 20260504182203 | 65 | 228 | 4.3 | 12.2 | 0.00 | 0.00 | 0.00 | 34 | 1009.7 |
| 20260504181203 | 65 | 285 | 3.5 | 13.9 | 0.00 | 0.00 | 0.00 | 35 | 1009.8 |
| 20260504180203 | 66 | 253 | 8.7 | 13.0 | 0.00 | 0.00 | 0.00 | 32 | 1009.9 |
| 20260504175204 | 66 | 204 | 4.3 | 9.6 | 0.00 | 0.00 | 0.00 | 36 | 1009.9 |
| 20260504174203 | 66 | 228 | 7.8 | 15.6 | 0.00 | 0.00 | 0.00 | 32 | 1009.8 |
| 20260504173203 | 67 | 280 | 7.0 | 11.3 | 0.00 | 0.00 | 0.00 | 34 | 1009.8 |
| 20260504172204 | 67 | 240 | 4.3 | 9.6 | 0.00 | 0.00 | 0.00 | 32 | 1009.8 |
| 20260504171202 | 67 | 226 | 8.7 | 14.8 | 0.00 | 0.00 | 0.00 | 30 | 1009.9 |
| 20260504170204 | 66 | 235 | 4.3 | 7.8 | 0.00 | 0.00 | 0.00 | 32 | 1009.9 |
| 20260504160204 | 65 | 260 | 7.0 | 13.0 | 0.00 | 0.00 | 0.00 | 33 | 1010.6 |
| 20260504150203 | 64 | 262 | 7.0 | 15.6 | 0.00 | 0.00 | 0.00 | 33 | 1011.1 |
| 20260504141203 | 62 | 253 | 4.3 | 9.6 | 0.00 | 0.00 | 0.00 | 39 | 1011.5 |
| 20260504140203 | 62 | 274 | 5.2 | 9.6 | 0.00 | 0.00 | 0.00 | 42 | 1011.6 |
| 20260504130233 | 59 | 278 | 5.2 | 7.0 | 0.00 | 0.00 | 0.00 | 47 | 1012.0 |
| 20260504130202 | 59 | 278 | 5.2 | 7.0 | 0.00 | 0.00 | 0.00 | 47 | 1012.0 |
| 20260504120203 | 53 | 263 | 1.7 | 5.2 | 0.00 | 0.00 | 0.00 | 58 | 1012.5 |
| 20260504110202 | 47 | 255 | 2.6 | 5.2 | 0.00 | 0.00 | 0.00 | 74 | 1012.2 |
| 20260504100204 | 45 | 274 | 3.5 | 4.3 | 0.00 | 0.00 | 0.00 | 77 | 1012.0 |
| 20260504081203 | 44 | 257 | 2.6 | 2.6 | 0.00 | 0.00 | 0.00 | 78 | 1011.8 |
| 20260504080203 | 44 | 269 | 2.6 | 2.6 | 0.00 | 0.00 | 0.00 | 79 | 1011.7 |
| 20260504070204 | 43 | 266 | 2.6 | 3.5 | 0.00 | 0.00 | 0.00 | 75 | 1011.6 |
| 20260504060203 | 42 | 278 | 1.7 | 2.6 | 0.00 | 0.00 | 0.00 | 72 | 1011.3 |
| 20260504050203 | 42 | 264 | 1.7 | 2.6 | 0.00 | 0.00 | 0.00 | 68 | 1011.5 |
| 20260504045204 | 41 | 267 | 1.7 | 2.6 | 0.00 | 0.00 | 0.00 | 68 | 1011.5 |
| 20260504044203 | 42 | 269 | 1.7 | 2.6 | 0.00 | 0.00 | 0.00 | 67 | 1011.5 |
| 20260504043202 | 42 | 262 | 2.6 | 2.6 | 0.00 | 0.00 | 0.00 | 66 | 1011.6 |